Location: Clyde
(45.1830°S, 169.3170°E)
Time: 22:57:16
(UTC+13:00)

Helios 1B rocket - Pass Details

Date: 24 January 2019
Orbit: 575 x 585 km, 98.2° (Epoch: 21 February)

Event Time Altitude Azimuth Distance (km) Brightness Sun altitude
Exits shadow 23:01:06 25° 40° (NE) 1,202 3.4 -14.5°
Maximum altitude 23:03:18 55° 107° (ESE) 710 2.7 -14.7°
Drops below altitude 10° 23:07:24 10° 185° (S) 1,931 5.9 -15.2°
Sets 23:09:37 0° 189° (S) 2,841 7.0 -15.5°
